www.pogodaiklimat.ru

Погода и климат >> Архив погоды >> Южная Африка >> Skukuza


ПОГОДА в Skukuza

  • Прогноз погоды в Skukuza
  • Монитор погоды в Skukuza
  • Климат города

АРХИВ ПОГОДЫ в Skukuza

Время (UTC), дата Ветер
(напр.,м/с)
 
Видим.   Явления Облачность Т
(С)
Тd
(С)
f
(%)
Тe
(С)
Тes
(С)
Комфортность P
(гПа)
Po
(гПа)
Тmin
(С)
Tmax
(С)
R
(мм)
R24
(мм)
S
(см)
09 11.08 СВ 3 н/о н/о +11.3 -6.9 27 +10 +10 858.3 991.1 -61.0 +25.7
12 11.08 С 2 н/о н/о -4.3 -24.1 20 -7 -7 849.0 988.5 +26.5
15 11.08 В 3 н/о н/о +2.6 -13.1 30 +2 +2 851.8 988.0 +26.5
18 11.08 З 1 н/о н/о +13.2 +3.3 51 +14 +14 857.4 989.1 +26.5
21 11.08 З 1 н/о н/о +8.5 +2.5 66 +8 +8 856.2 990.2 +26.5
00 12.08 штиль 0 н/о н/о +6.2 +1.3 71 +6 +6 855.0 990.0 +26.5
03 12.08 СЗ 1 н/о н/о +4.5 +1.3 80 +3 +3 854.3 990.1 +26.5
06 12.08 штиль 0 н/о н/о +12.2 -5.1 29 +12 +12 858.9 991.3
09 12.08 С 3 н/о н/о +4.5 -13.9 25 +2 +2 854.8 990.7 +25.9
12 12.08 В 3 н/о н/о -12.2 -33.3 15 -18 -18 845.3 988.3 +26.5
15 12.08 В 2 н/о н/о -1.3 -18.8 25 -2 -2 850.3 987.6 +26.5
18 12.08 СЗ 1 н/о н/о +13.9 +2.2 45 +14 +14 858.2 989.7 +26.5
21 12.08 З 1 н/о н/о +9.9 +2.3 59 +10 +10 857.5 990.9 +26.5
00 13.08 З 1 н/о н/о +7.0 +1.7 69 +6 +6 856.1 990.9 +26.5
03 13.08 ЮЗ 1 н/о н/о +5.1 +1.4 77 +4 +4 855.3 991.0 +26.5
06 13.08 штиль 0 н/о н/о +12.4 +6.7 68 +12 +12 860.4 993.0
09 13.08 ЮВ 2 н/о н/о +23.7 +10.2 42 +25 +25 комфорт 865.3 992.5 +24.4
12 13.08 СВ 3 н/о н/о -32.4 -46.7 23 -42 -42 опасность
обморожения
865.2 988.6 +24.7
15 13.08 В 2 н/о н/о +25.9 +4.6 25 +25 +25 комфорт 862.2 988.1 +26.5
18 13.08 штиль 0 н/о н/о +14.0 +4.3 52 +14 +14 858.3 989.7 +26.5
21 13.08 З 1 н/о н/о +9.4 +3.6 67 +9 +9 857.4 991.1 +26.5
00 14.08 З 1 н/о н/о +9.5 +6.4 81 +9 +9 858.6 992.5 +26.5
03 14.08 штиль 0 н/о н/о +12.0 +8.3 78 +12 +12 860.7 993.5 +26.5
06 14.08 штиль 0 н/о н/о +14.7 +9.7 72 +14 +14 863.2 994.9 +13.9
09 14.08 ЮЗ 2 н/о н/о +35.2 +20.6 43 +42 +42 опасность
перегрева
872.4 994.4 +13.9 +38.4
12 14.08 Ю 2 н/о н/о -50.6 -61.0 28 -60 -60 опасность
обморожения
870.4 991.5 +27.9 0.2
15 14.08 В 2 н/о н/о +25.6 +9.2 35 +26 +26 жарко 864.3 990.5 +27.9
18 14.08 ЮВ 1 н/о н/о +17.1 +10.0 63 +18 +18 861.1 991.3 +27.9 0.2
21 14.08 З 1 н/о н/о +12.8 +8.5 75 +13 +13 858.6 990.7 +27.9
00 15.08 штиль 0 н/о н/о +10.4 +7.1 80 +10 +10 856.3 989.3 +27.9 0.4
03 15.08 Ю 1 н/о н/о +7.8 +5.1 83 +7 +7 853.9 987.9 +27.9
06 15.08 СЗ 1 н/о н/о +14.8 +9.0 68 +15 +15 857.3 988.2 0.4
09 15.08 С 4 н/о н/о +29.7 +7.9 26 +29 +29 жарко 862.0 986.0 +29.7
12 15.08 В 3 н/о н/о -0.1 -23.9 15 -3 -3 861.0 982.3 +29.7
15 15.08 СВ 3 н/о н/о +30.1 0.0 14 +27 +27 жарко 857.6 981.1 +31.1
18 15.08 СВ 2 н/о н/о +23.2 +1.1 23 +22 +22 комфорт 855.1 981.7 +31.1
21 15.08 С 1 н/о н/о +19.1 +1.2 30 +20 +20 853.2 981.5 +31.1
00 16.08 З 1 н/о н/о +9.8 +0.9 54 +10 +10 848.0 980.2 +31.1
03 16.08 С 1 н/о н/о +8.4 +2.2 65 +8 +8 846.6 979.3 +31.1
06 16.08 штиль 0 н/о н/о +15.6 +3.4 44 +16 +16 850.4 980.1
09 16.08 В 1 н/о н/о +23.8 -7.1 12 +22 +22 комфорт 852.3 978.3 +32.0
12 16.08 СВ 3 н/о н/о +30.1 -7.8 8 +25 +25 комфорт 852.0 974.6 +32.0
15 16.08 С 4 н/о н/о +31.7 -4.6 9 +28 +28 жарко 850.7 973.2 -66.5 +32.2
18 16.08 СВ 3 н/о н/о +25.9 -3.3 14 +24 +24 комфорт 849.6 974.5 -66.5 +32.2
21 16.08 З 1 н/о н/о +16.5 -2.4 27 +17 +17 845.4 974.1 -66.5 +32.2
00 17.08 З 1 н/о н/о +12.4 -1.8 37 +13 +13 843.2 973.5 -66.5 +32.2
03 17.08 З 3 н/о н/о +13.1 -1.9 35 +12 +12 844.9 975.1 -66.5 +32.2
06 17.08 Ю 4 н/о н/о +19.2 +10.5 57 +20 +20 850.0 978.0 -66.5
09 17.08 Ю 3 н/о н/о +25.4 +11.4 42 +27 +27 жарко 852.8 978.2 -66.5 +25.4
12 17.08 Ю 4 н/о н/о +26.0 +9.1 34 +26 +26 жарко 852.0 977.0 -66.5 +27.3
15 17.08 Ю 5 н/о н/о +21.1 +8.8 45 +22 +22 комфорт 851.8 979.1 +21.1 +27.3
18 17.08 Ю 2 н/о н/о +16.8 +6.7 51 +17 +17 853.6 983.1 +16.7 +27.3
21 17.08 Ю 4 н/о н/о +16.0 +5.9 51 +15 +15 856.1 986.3 +16.0 +27.3
00 18.08 Ю 2 н/о н/о +15.2 +5.5 52 +15 +15 856.3 986.9 +15.1 +27.3
03 18.08 З 2 н/о н/о +15.6 +3.1 43 +16 +16 857.1 987.6 +15.0 +27.3
06 18.08 ЮЗ 4 н/о н/о +17.4 +3.4 39 +17 +17 860.8 990.8 +13.4

 

Местоположение метеостанции Skukuza (Южная Африка): широта -24.98 долгота 31.60 высота над уровнем моря 271 м.

В архиве по умолчанию представлена погода в Skukuza за последнюю неделю. Архивные данные за месяц целиком и за предыдущие месяцы, начиная с января 2011 года, Вы можете получить, выбрав интересующий диапазон дат из раскрывающегося списка и нажав кнопку "Ввод!".

Внимание! Время в таблицах - всемирное. Для получения местного времени необходимо прибавить поправку, которая в Skukuza равна 2 ч.

Смотрите также архив погоды в соседних городах и на ближайших метеорологических станциях:

Погода в Komatidraai (Южная Африка) (66 км)
Погода в Graskop (Южная Африка) (76 км)
Погода в Graskop-Skool (Южная Африка) (78 км)
Погода в Hoedspruit AFB (Южная Африка) (89 км)
Погода в Nelspruit (Южная Африка) (90 км)
Погода в Vuvulane (Свазиленд) (100 км)
Погода в Lydenburg (Южная Африка) (114 км)
Погода в Lydenburg 2 (Южная Африка) (115 км)
Погода в Piggs Peak (Свазиленд) (116 км)
Погода в Maputo (Мозамбик) (142 км)

Пояснения к столбцам:

Ветер - указаны скорость ветра в м/с - средняя за 10 мин, порывы в срок и между сроками (в фигурных скобках) и направление, откуда дует ветер: С - северный, СВ - северо-восточный, В - восточный, ЮВ - юго-восточный, Ю - южный, ЮЗ - юго-западный, З - западный, СЗ - северо-западный.
Видимость - горизонтальная дальность видимости в метрах или километрах. При видимости от 1 до 10 км при отсутствии осадков обычно наблюдается дымка, при ухудшении видимости до 1 км и менее - туман. В сухую погоду видимость может ухудшаться дымом, пылью или мглою.
Явления - указаны атмосферные явления, наблюдавшиеся в срок или в последний час перед сроком; фигурными скобками обозначены явления, наблюдавшиеся между сроками (за 1-3 часа до срока); квадратными скобками обозначены град или гололедные отложения с указанием их диаметра в мм.
Облачность - указаны через наклонную черту общая и нижняя облачность в баллах и высота нижней границы облаков в метрах; квадратными скобками обозначены формы облаков: Ci - перистые, Cs - перисто-слоистые, Cc - перисто-кучевые, Ac - высококучевые, As - высокослоистые, Sc - слоисто-кучевые, Ns - слоисто-дождевые, Cu - кучевые, Cb - кучево-дождевые. Подробнее классификацию облаков см. в Атласе облаков (PDF).
T - Температура воздуха - температура, измеренная на высоте 2 м над землей.
Td - Температура точки росы - температура, при понижении до которой содержащийся в воздухе водяной пар достигнет насыщения.
f - Относительная влажность воздуха - влажноcть воздуха, измеренная на высоте 2 м над землей.
Te - Эффективная температура - температура, которую ощущает одетый по сезону человек в тени. Характеристика душности погоды. При расчете учитывается влияние влажности воздуха и скорости ветра на теплоощущения человека.
Tes - Эффективная температура на солнце - температура, которую ощущает человек, с поправкой на солнечный нагрев. Характеристика знойности погоды. Зависит от высоты солнца над горизонтом, облачности и скорости ветра. Ночью, в пасмурную погоду, а также при ветре 12 м/с и более поправка равна нулю.
P - Атмосферное давление - приведенное к уровню моря атмосферное давление.
Po - Атмосферное давление - измеренное на уровне метеостанции атмосферное давление.
Tmin - Минимальная температура - минимум температуры воздуха на высоте 2 м над землей.
Tmax - Максимальная температура - максимум температуры воздуха на высоте 2 м над землей.
R - Количество осадков - Количество выпавших осадков за период времени, мм. При наведении курсора мыши на число - период времени, за который выпало указанное количество осадков.
R24 - Количество осадков - Количество выпавших осадков за 24 часа, мм.
S - Снежный покров - Высота снежного покрова, см. При наведении курсора мыши на число - состояние снежного покрова и степень покрытия местности в баллах.